GFSMW_sfc_thetae_000.txt.gz
Theta_e
308 311 311 311 311 311 311 312 313 314 309 308 307 309 306 306 306 306 308 308 309 308 306 305 306 305 303 302 301 301 301 301 301 299 301 300 301 302 302 304 304 305 304
307 308 308 309 308 308 309 310 308 308 308 309 309 308 305 305 306 309 309 307 307 306 305 303 302 302 301 300 299 300 299 299 300 297 297 294 298 297 300 301 301 300 302
305 307 307 305 304 304 305 305 305 305 307 308 305 305 306 306 305 304 303 305 303 303 302 301 301 300 300 298 298 299 298 297 298 298 296 292 290 293 297 297 295 296 296
307 306 305 304 304 303 303 304 304 304 305 305 303 304 303 301 302 302 300 299 300 301 301 300 300 299 299 297 298 300 297 297 295 296 299 295 294 292 290 292 295 295 295
304 304 304 305 304 303 303 303 304 304 304 304 303 302 300 299 299 299 297 297 298 299 299 299 298 298 298 297 296 297 296 296 295 294 294 293 292 295 290 287 289 292 293
303 304 305 305 304 303 302 301 302 303 303 302 302 302 299 297 297 295 294 295 296 297 297 298 296 295 295 294 294 293 293 292 292 292 292 292 290 289 288 289 288 288 290
302 303 304 303 303 303 303 303 303 304 303 302 300 299 297 296 294 294 295 295 296 296 296 295 295 294 294 293 293 292 291 292 291 291 292 292 291 291 290 289 289 287 289
302 302 302 302 302 303 303 302 300 298 299 298 297 297 298 299 298 298 294 296 295 295 295 294 294 293 293 292 291 290 290 290 289 288 288 289 289 289 288 290 288 285 287
299 301 301 302 302 302 301 302 300 298 297 298 298 299 300 300 299 299 296 297 294 296 293 293 292 292 291 291 291 289 288 288 287 287 287 287 288 288 290 292 289 285 282
299 300 300 300 300 301 302 303 301 298 297 297 299 301 300 299 297 295 294 293 293 294 293 291 290 291 290 290 290 288 288 287 287 288 287 286 287 288 289 289 290 288 285
298 299 299 299 298 298 298 298 297 299 297 297 297 296 296 296 295 293 293 293 293 294 294 292 290 289 288 287 286 287 287 287 285 285 284 283 283 283 283 284 286 287 288
299 298 297 297 296 295 295 294 295 296 296 296 297 296 296 295 293 292 291 292 291 291 291 291 290 287 286 286 285 285 285 283 282 282 281 281 283 281 281 281 282 283 284
297 296 296 295 294 293 292 291 291 290 291 292 294 295 296 296 292 290 291 291 289 290 290 289 287 286 286 285 284 283 282 281 281 280 280 280 280 279 280 280 281 282 284
295 295 294 293 291 290 289 289 290 290 290 289 290 289 291 293 290 289 290 291 292 292 288 287 287 287 285 285 283 282 280 280 280 281 280 279 279 278 279 280 281 282 280
295 295 293 291 288 288 288 289 289 289 290 289 288 290 292 291 291 292 291 292 291 292 287 286 285 284 284 283 280 280 280 279 279 279 279 279 280 282 283 282 282 280 278
294 293 292 289 289 289 287 288 288 288 289 288 290 292 292 292 291 290 291 290 290 286 285 284 284 283 284 284 284 281 278 279 278 277 278 278 280 280 282 283 283 283 280
293 292 289 288 288 287 287 286 287 288 288 288 290 291 291 291 290 291 290 290 286 285 283 283 282 281 281 284 284 284 279 278 277 278 277 278 280 280 280 281 282 281 283
292 290 287 287 287 286 286 287 287 287 287 289 289 290 289 289 289 290 289 288 286 284 282 281 281 281 282 285 285 283 279 279 278 278 278 277 277 278 279 279 280 280 280
290 288 287 287 286 286 286 286 286 286 286 288 288 289 288 288 288 289 288 288 284 280 281 281 281 280 280 284 284 281 277 277 277 278 278 278 277 279 282 279 277 277 278
289 288 287 286 285 286 286 286 285 285 286 288 289 289 289 288 288 287 286 284 281 282 281 280 279 281 278 282 281 280 274 271 275 276 277 278 278 279 281 279 277 275 276
288 288 287 285 286 286 286 286 285 285 287 288 288 288 288 288 287 286 283 281 281 281 278 278 278 278 278 278 280 279 275 274 275 274 275 276 279 279 280 280 277 277 278
286 287 286 286 286 287 287 285 284 286 287 287 286 286 285 286 285 283 281 281 280 278 275 270 272 274 275 278 277 278 278 278 271 274 275 276 278 279 279 279 279 279 278
285 286 285 285 286 287 286 285 285 286 286 285 284 284 284 284 283 281 279 278 277 274 274 276 269 272 274 272 277 277 278 277 274 275 277 277 277 277 277 278 278 277 276
284 285 285 284 285 286 286 286 286 286 285 284 283 283 282 282 282 280 280 278 273 272 276 274 271 269 271 269 272 273 270 274 276 275 275 275 276 275 275 276 276 276 276
285 285 284 284 285 286 286 286 286 285 283 284 283 282 280 280 280 279 279 278 278 277 273 272 272 262 262 269 276 276 273 272 273 270 270 271 272 271 272 272 273 274 275
284 284 285 285 285 285 285 286 285 284 284 283 282 280 278 277 280 281 281 282 282 281 282 279 272 267 274 278 279 278 277 276 276 269 267 265 266 269 270 269 270 272 273

GFSMW_sfc_thetae_006.txt.gz
Theta_e
305 307 308 310 311 312 312 314 314 314 312 309 308 307 306 308 310 304 303 303 303 301 300 299 299 298 297 296 297 296 296 296 297 295 295 295 296 298 299 299 298 298 300
303 305 304 305 307 309 311 311 310 308 309 307 306 309 309 306 302 301 299 300 299 299 300 298 297 297 296 296 295 295 295 295 296 294 293 290 293 295 296 296 296 294 296
302 302 301 300 301 303 303 304 304 304 305 307 306 302 302 302 299 298 296 297 298 298 297 297 297 295 295 295 294 294 294 292 293 293 292 288 286 289 293 293 293 292 293
301 300 299 299 299 298 299 300 302 302 302 302 301 300 299 297 297 295 294 295 297 297 297 296 295 294 294 294 294 294 292 292 289 292 293 291 290 287 286 291 291 291 292
299 301 300 300 299 300 299 299 301 301 301 300 300 299 295 296 295 293 294 294 295 296 296 295 294 294 293 292 291 290 289 290 288 288 288 289 289 289 287 283 286 289 290
298 300 301 302 300 299 298 298 299 298 299 298 297 296 295 294 293 293 294 294 294 294 295 295 293 292 291 291 290 289 288 288 287 288 288 287 286 285 285 283 283 284 287
298 300 300 299 296 296 296 298 296 295 296 296 296 295 295 293 294 294 293 293 294 294 293 292 292 291 291 291 289 288 287 286 285 285 285 286 285 287 286 284 282 282 283
299 297 296 296 297 296 295 294 294 294 295 295 294 295 294 294 295 295 294 294 292 292 292 292 291 291 293 291 292 290 287 287 285 284 284 284 285 285 285 284 282 278 280
295 296 296 296 295 296 295 294 294 294 294 294 294 294 294 293 293 293 293 292 292 293 292 290 293 293 292 291 290 287 288 286 286 285 285 284 284 283 282 283 282 280 276
295 295 294 294 294 293 294 294 292 290 290 290 291 291 290 290 290 290 290 291 291 292 293 292 293 292 291 290 289 286 286 286 285 285 284 282 282 282 282 280 281 281 278
293 293 292 292 291 292 292 291 289 288 288 288 289 289 289 289 289 289 289 289 290 291 291 291 291 288 288 288 285 284 284 285 284 282 281 281 281 280 280 280 279 279 279
293 293 292 292 291 289 290 288 288 288 288 287 288 288 288 288 288 288 288 288 288 288 289 289 289 288 287 285 283 283 284 282 281 281 280 280 281 279 278 278 277 278 279
292 292 291 290 289 289 288 289 289 287 286 286 285 287 287 287 287 286 286 287 287 287 288 289 287 286 284 284 283 283 282 281 280 280 280 279 279 277 277 277 277 278 280
292 291 290 289 287 288 289 288 287 287 286 285 285 286 287 287 287 287 286 286 287 288 289 287 287 285 284 283 283 282 280 280 280 280 280 279 279 278 277 278 278 279 278
291 291 289 286 288 288 287 286 286 286 286 286 285 286 287 287 287 287 287 287 287 290 287 287 284 282 283 283 281 281 280 279 279 279 280 280 281 283 282 279 278 277 278
292 292 290 289 288 287 286 285 285 286 286 286 285 287 288 288 287 287 287 287 290 288 283 280 281 281 282 285 286 285 281 280 279 280 279 279 280 280 280 280 280 280 277
292 292 291 289 287 286 285 285 285 285 285 285 286 287 287 287 286 286 286 286 285 284 282 281 281 280 282 286 285 283 279 278 278 277 276 276 278 277 277 278 280 280 281
291 291 290 286 285 284 284 284 284 284 284 284 285 286 286 285 285 285 285 285 285 284 280 280 280 280 281 283 283 281 277 277 276 276 276 275 276 277 278 278 279 278 279
290 290 288 284 283 283 284 283 283 283 284 284 284 285 285 285 285 284 284 284 284 282 280 280 279 278 278 281 281 279 276 276 275 276 276 276 276 278 280 278 277 277 278
289 286 284 284 283 283 283 283 283 283 283 284 284 285 285 284 284 283 283 282 280 280 280 279 277 279 276 279 279 278 274 270 274 275 276 277 277 279 279 278 276 274 277
285 285 285 284 283 284 284 283 283 283 284 284 284 284 284 283 283 282 281 279 279 278 277 277 276 276 277 276 278 278 273 273 274 274 274 275 277 278 278 279 276 277 277
285 284 284 284 284 284 283 282 282 284 284 284 283 283 283 283 283 280 278 279 277 276 274 269 272 273 274 276 277 278 278 277 268 272 274 274 277 277 276 276 278 277 276
284 284 284 284 284 283 283 282 283 283 283 283 283 283 282 282 282 279 278 277 276 273 273 275 270 272 274 272 276 277 277 276 269 272 273 275 275 275 274 275 275 275 274
284 283 283 282 282 283 283 283 283 283 282 283 282 282 281 282 282 280 279 278 273 272 275 273 272 270 270 269 270 272 268 272 273 270 269 270 273 270 272 272 271 272 273
284 283 282 282 282 283 283 283 282 282 282 283 283 282 280 281 281 279 279 278 277 276 274 273 272 264 261 268 273 274 269 266 269 264 262 265 268 269 270 270 270 269 270
283 283 282 282 282 282 282 282 282 282 281 283 283 282 283 284 281 280 280 282 282 282 282 282 273 267 274 277 279 279 278 276 275 265 261 258 259 265 268 268 268 267 267

GFSMW_sfc_thetae_009.txt.gz
Theta_e
311 314 317 320 321 323 323 322 321 321 320 316 315 315 315 314 309 309 309 309 309 308 309 307 307 307 306 306 306 305 302 301 304 300 299 300 306 307 306 306 305 302 302
309 310 315 319 321 321 320 320 319 317 316 317 317 318 317 312 307 307 307 306 307 306 306 307 307 307 306 306 305 303 300 302 303 297 296 294 297 301 303 302 302 301 301
307 309 311 314 316 315 315 315 315 315 314 315 314 312 311 310 308 305 305 305 306 306 306 307 307 306 306 304 303 302 301 298 300 301 296 291 290 294 298 299 299 299 298
306 305 305 306 307 307 309 310 310 310 309 310 310 310 309 307 306 304 305 306 306 306 304 305 305 305 304 303 302 300 299 298 294 296 298 297 296 289 288 294 295 296 294
305 304 305 306 306 307 308 308 308 307 307 308 309 307 306 305 304 305 304 304 305 304 303 303 303 303 302 301 300 298 297 296 294 293 293 293 292 292 288 284 287 290 292
305 305 306 306 305 306 307 306 305 304 305 306 306 306 305 303 303 303 303 303 304 305 304 302 302 301 300 299 298 297 295 295 294 294 292 289 287 286 287 285 286 286 288
305 305 305 304 304 304 304 303 303 301 303 303 303 302 302 302 302 302 301 301 301 301 302 301 300 299 298 297 298 296 295 294 293 292 291 291 290 290 289 287 285 285 287
305 304 303 302 301 301 301 302 302 301 301 302 301 301 299 298 297 297 297 296 297 298 301 301 299 298 299 298 297 296 295 295 294 293 292 291 291 292 291 288 286 283 284
303 303 302 301 301 301 301 300 298 297 297 297 297 296 296 296 295 296 296 295 297 298 300 299 298 299 298 297 296 295 295 294 294 293 293 292 292 291 290 289 287 284 280
301 300 299 300 301 301 298 297 296 295 295 295 296 295 295 295 296 296 295 295 297 298 299 298 298 297 298 296 295 294 294 292 293 292 292 291 290 289 289 288 287 286 282
300 298 298 298 299 297 296 295 294 295 294 294 295 295 295 295 295 295 295 295 296 297 298 298 296 297 295 295 294 293 292 291 292 292 289 288 288 287 287 286 285 283 283
298 297 296 295 295 295 294 293 295 294 294 294 294 294 294 295 294 294 294 295 294 296 295 294 294 294 294 294 292 291 291 290 289 289 287 287 286 286 286 285 283 283 283
297 296 295 293 293 293 293 294 293 292 293 292 293 293 293 293 294 294 294 294 294 293 294 294 292 292 293 291 290 290 289 288 287 287 286 286 285 285 285 283 282 282 281
296 297 295 293 293 293 294 293 293 293 292 292 292 292 293 293 293 294 294 294 294 294 294 293 293 293 291 289 289 288 287 286 286 286 286 285 284 283 283 282 282 281 280
295 295 294 293 293 292 293 294 293 293 293 292 291 292 293 294 294 293 293 293 294 295 293 290 288 288 288 287 287 287 286 286 286 285 284 283 283 282 281 281 280 279 278
296 296 295 293 292 293 294 292 292 292 292 291 291 292 292 293 293 292 292 293 293 293 290 289 288 287 286 286 286 286 285 284 282 281 281 281 280 280 280 279 280 280 279
296 295 295 295 294 293 293 292 291 291 290 290 291 291 291 292 292 291 291 291 292 293 292 288 288 287 287 284 283 282 282 281 281 280 279 279 279 279 280 280 280 281 281
296 296 296 295 294 292 291 291 290 289 289 289 290 290 291 290 291 290 290 291 291 291 291 288 287 286 284 282 281 281 282 281 280 279 279 279 279 279 279 280 280 279 280
297 296 296 295 290 290 290 289 289 289 289 289 289 290 290 290 290 289 290 290 290 290 288 287 285 283 282 280 280 280 281 279 279 279 279 279 278 279 280 279 278 278 278
295 294 291 289 289 288 289 289 288 288 288 289 289 289 290 289 289 289 289 289 289 285 286 284 283 280 281 279 279 280 280 279 278 279 279 278 278 278 279 278 278 276 278
289 288 289 288 289 289 289 287 287 287 288 289 289 289 290 289 289 289 288 287 286 285 284 282 282 281 280 280 278 279 280 279 278 277 277 278 277 278 278 277 277 277 278
288 288 288 288 288 288 288 287 287 288 288 288 288 289 289 288 288 287 287 285 285 284 282 281 281 281 280 277 278 279 279 278 278 277 277 277 277 276 276 276 276 276 276
287 288 288 287 287 287 288 286 287 288 287 287 288 288 288 287 287 287 286 284 284 283 282 281 281 281 281 281 277 278 278 278 278 278 277 276 275 275 275 275 274 274 276
287 287 286 285 285 287 287 287 287 287 286 286 287 288 287 286 287 287 285 284 283 283 282 282 281 282 281 281 280 280 281 278 278 276 276 274 274 273 273 275 275 274 274
287 286 285 285 285 286 286 287 286 286 285 286 286 285 285 285 286 287 285 284 284 284 284 283 282 282 281 281 280 279 281 280 278 275 276 275 274 274 274 274 274 273 273
286 285 285 285 285 286 286 286 286 286 285 285 286 285 285 285 285 286 285 284 283 282 283 282 282 283 280 278 279 280 280 278 276 276 275 274 273 273 273 273 272 273 271

GFSMW_sfc_thetae_012.txt.gz
Theta_e
320 324 326 330 331 332 332 333 331 331 330 327 323 319 319 320 318 316 315 314 314 313 313 312 312 312 310 310 310 308 307 306 307 304 303 303 305 307 307 307 306 306 306
320 322 327 329 330 331 331 331 330 330 328 325 323 323 322 320 315 315 313 312 311 311 310 311 310 310 308 309 309 307 304 304 305 302 300 296 299 302 305 305 304 304 304
319 322 324 326 327 327 327 325 324 323 322 322 321 320 319 316 314 313 313 311 311 311 310 310 310 309 308 306 307 306 304 301 303 302 299 295 293 296 299 301 300 302 300
319 318 318 320 319 320 322 321 320 318 317 316 317 316 315 314 312 313 312 311 311 311 310 309 309 308 307 306 306 304 303 301 298 299 299 299 297 292 290 297 298 297 296
314 313 314 314 314 316 316 316 315 314 315 316 316 314 312 311 311 311 309 310 311 311 309 308 308 307 306 306 305 303 301 300 299 297 296 296 295 294 290 287 291 293 294
311 311 312 312 313 314 315 315 313 312 313 313 312 312 309 308 308 307 305 304 303 303 303 303 306 307 306 305 303 302 301 299 297 296 294 293 291 290 289 288 289 289 291
311 310 310 311 311 312 312 311 311 309 310 310 309 308 307 304 302 300 299 298 298 299 300 302 303 304 304 303 302 300 299 297 295 295 293 293 292 292 291 289 288 287 290
311 311 311 311 311 310 310 310 309 307 307 305 303 302 300 300 299 299 299 298 298 298 300 302 303 304 303 301 299 300 299 297 296 295 294 293 293 293 292 290 288 285 287
311 310 310 309 309 309 310 308 305 303 302 302 300 299 301 300 299 300 300 299 299 298 300 303 303 302 301 300 300 299 297 296 295 295 294 293 293 293 292 291 290 287 283
311 310 309 308 309 308 306 305 304 302 301 299 300 300 299 300 300 300 298 298 298 299 300 301 301 301 299 299 299 297 296 294 294 293 293 293 292 292 292 291 290 289 286
310 309 308 308 308 306 304 303 302 300 297 300 300 300 300 299 299 299 298 298 298 298 298 299 300 298 298 297 297 297 294 293 293 293 293 292 292 291 291 290 290 288 287
310 308 306 306 305 303 302 301 301 300 299 299 299 299 300 299 298 298 297 298 297 298 297 297 297 297 297 296 296 295 293 292 292 292 292 291 290 290 290 289 288 287 287
308 306 304 303 302 301 300 300 299 298 299 298 298 299 298 298 297 297 297 297 297 297 297 297 296 296 296 296 295 293 292 292 292 291 290 290 290 288 288 287 286 285 284
305 304 302 302 301 300 300 299 299 301 299 297 297 297 297 297 298 297 297 296 296 296 297 296 296 296 295 294 292 292 292 292 291 291 290 289 288 286 286 284 284 283 283
303 303 302 302 301 300 301 300 301 300 299 297 296 297 297 298 297 297 296 296 296 296 296 295 294 293 292 291 291 291 291 291 289 289 287 287 284 282 282 282 282 281 281
303 303 303 302 300 300 299 300 300 298 298 296 296 297 297 296 296 296 296 295 295 295 295 295 294 293 292 286 285 285 288 288 287 285 285 285 283 283 281 281 281 281 280
303 303 303 302 300 299 300 300 298 298 296 295 295 295 295 294 295 295 295 294 294 295 294 295 294 293 293 284 283 282 287 286 285 284 284 283 283 282 282 281 281 282 282
304 305 304 302 301 299 300 300 297 295 294 294 294 294 293 293 294 294 294 294 294 294 293 293 293 292 288 282 281 281 287 286 284 284 283 283 283 282 280 280 281 282 282
306 306 305 303 300 299 298 296 294 294 293 292 292 292 293 293 293 293 293 294 293 293 293 292 291 289 288 281 280 281 285 284 283 283 283 282 281 280 279 280 279 280 281
307 305 303 300 298 296 294 294 294 292 290 291 291 292 292 292 292 292 293 294 293 292 291 289 290 283 287 280 279 281 285 283 283 283 282 279 279 278 279 279 278 277 279
305 302 298 296 295 294 294 292 291 289 291 291 292 291 292 292 292 292 293 293 292 290 290 287 288 287 285 284 279 279 283 283 281 282 281 281 278 278 278 277 278 277 278
299 297 294 293 291 293 292 290 289 291 291 291 291 291 292 291 291 292 292 292 291 289 288 287 287 288 286 280 280 279 279 280 281 280 282 281 278 277 277 277 276 276 277
295 291 290 290 292 291 290 289 290 291 291 291 290 291 291 291 291 291 291 291 290 288 288 287 287 287 287 287 280 279 279 279 280 281 280 277 277 277 277 276 276 276 278
290 292 289 290 288 289 290 290 291 291 290 289 290 290 289 288 290 291 291 290 289 288 287 286 286 287 286 286 286 285 284 281 281 281 281 279 276 277 278 278 278 278 277
289 290 289 288 288 289 289 290 290 290 288 289 289 289 288 287 287 287 288 289 290 288 288 288 287 286 285 285 285 283 284 284 282 279 281 281 280 279 279 279 278 278 277
288 287 287 287 288 288 288 289 289 289 289 287 288 289 289 288 287 286 287 286 284 284 284 283 284 287 284 281 281 280 280 280 279 279 280 280 279 278 278 278 278 278 276